Regional Weather Roundup
Issued by NWS Mt. Holly, NJ

Current Version | Previous Version | Text Only | Print | Product List | Glossary On
Versions: 1 2 3 4 5 6 7 8 9 10 11 12 13 14 15 16 17 18 19 20 21 22 23 24 25 26 27
000
ASUS41 KPHI 210712
RWRPHI

REGIONAL WEATHER ROUNDUP
NATIONAL WEATHER SERVICE MOUNT HOLLY NJ
300 AM EDT FRI JUL 21 2017

NOTE:  "FAIR" INDICATES FEW OR NO CLOUDS BELOW 12,000 FEET WITH NO
SIGNIFICANT WEATHER AND/OR OBSTRUCTIONS TO VISIBILITY.

 * = STATION DOES NOT REPORT PRECIPITATION (E.G. RAIN, SNOW, ETC.)
        OR FOG.

NJZ015>026-210800-
SOUTHERN NEW JERSEY

CITY           SKY/WX    TMP DP  RH WIND       PRES   REMARKS
POMONA         CLOUDY    82  76  81 SW7       29.89F
MILLVILLE      PTCLDY    79  78  97 SW6       29.89F
WRIGHTSTOWN    MOCLDY    73  69  87 CALM      29.86F
MOUNT HOLLY    MOCLDY    73  71  93 CALM      29.88F
TRENTON        PTCLDY    74  71  91 CALM      29.88F

$$
NJZ001>014-210800-
NORTHERN NEW JERSEY

CITY           SKY/WX    TMP DP  RH WIND       PRES   REMARKS
SUSSEX         MOCLDY    67  67 100 CALM      29.91F FOG
ANDOVER*         N/A     69  68  96 CALM      29.91F
MORRISTOWN     CLOUDY    68  68 100 CALM      29.90S FOG
NEWARK         CLOUDY    76  69  79 W6        29.88F
TETERBORO      MOCLDY    76  68  76 NW6       29.87F
CALDWELL       CLOUDY    72  69  90 SW3       29.90F
SOMERVILLE     FOG       70  70 100 CALM      29.88F VSB 3/4
ALLAIRE*       CLOUDY    73  71  93 SW3       29.89F
TOMS RIVER*    PTCLDY    73  68  84 CALM      29.89F

$$
PAZ043-044-047-054-055-060>062-066>071-210800-
EASTERN PENNSYLVANIA

CITY           SKY/WX    TMP DP  RH WIND       PRES   REMARKS
PHILADELPHIA   MOCLDY    82  70  66 SW5       29.89F
NORTH PHILA    MOCLDY    77  71  82 CALM      29.90F
BLUE BELL*     MOCLDY    70  70 100 CALM      29.91F
DOYLESTOWN     MOCLDY    73  70  90 CALM      29.90F
QUAKERTOWN*    PTCLDY    72  68  88 CALM      29.92F
PERKASIE*      FAIR      68  68 100 CALM      29.92F
POTTSTOWN      MOCLDY    71  69  93 CALM      29.92F
LANCASTER      CLOUDY    78  71  79 NW6       29.91F
COATESVILLE    MOCLDY    75  72  88 NW6       29.93F
READING        CLOUDY    74  71  91 CALM      29.90F
ALLENTOWN      CLOUDY    71  68  90 CALM      29.91F
MOUNT POCONO   PTCLDY    65  65 100 W3        29.97F
HAZLETON         N/A     68  66  94 W3        30.00S
LEHIGHTON      FOG       68  68 100 CALM      29.93F VSB 1/4
WILKES BARRE   CLOUDY    69  69 100 SW3       29.94S FOG

$$
DEZALL-MDZ008-012-015-019-020-210800-
DELAWARE AND EASTERN MARYLAND

CITY           SKY/WX    TMP DP  RH WIND       PRES   REMARKS
WILMINGTON     PTCLDY    81  77  88 W6        29.89F
DOVER          PTCLDY    80  80 100 S8        29.88F
GEORGETOWN     CLOUDY    80  75  84 SW6       29.92F
EASTON         PTCLDY    82  75  80 CALM      29.95F
PATUXENT       CLEAR     80  74  81 SW9       29.91F
OCEAN CITY     PTCLDY    81  75  82 SW10      29.92F
WALLOPS ISLAND PTCLDY    79  74  84 SW7       29.93F
CAMBRIDGE      CLEAR     81  75  83 CALM      29.91F

$$
PAZ001-021-NYZ056-072-MDZ011-DCZ001-210800-
OTHER NEARBY LOCATIONS

CITY           SKY/WX    TMP DP  RH WIND       PRES   REMARKS
HARRISBURG     CLOUDY    80  71  74 NW7       29.91S
STATE COLLEGE  CLOUDY    74  70  86 W8        29.99S
WILLIAMSPORT   PTCLDY    70  69  97 N3        29.93S
BINGHAMTON     FOG       65  65 100 SW5       29.95F VSB 1/2
NEW YORK CITY  CLOUDY    77  68  73 CALM      29.91F
BALTIMORE      PTCLDY    80  70  71 W5        29.91F
WASHINGTON DC  CLOUDY    85  69  58 NW7       29.92F

$$




USA.gov is the U.S. government's official web portal to all federal, state and local government web resources and services.